Find Starlink 31792

NORAD ID: 60132 Int'l Des: 2024-118 Owner: SPXS Country: US Constellation: starlink operational
LEOCIRCULAR

当前视图

正在加载3D地球...

About Starlink 31792

Starlink 31792 (NORAD 60132) is a starlink constellation satellite (v2 mini) launched Jun 24, 2024 by SPXS of US. It operates in LEO, CIRCULAR orbit with a mass of 730.00 kg.

关于 Starlink 31792

正在加载描述...

即将过境

Passes for default location (London). Set your location on the main map for personalized predictions.

高度历史

Loading altitude history...

两行轨道根数

1 60132U 24118V 26174.91980331 -.00000781 00000-0 -14260-4 0 9997
2 60132 53.1590 250.9043 0001243 92.3384 267.7759 15.30189880111996
Epoch: Jun 23, 2026 • Age: 15 hours

当前状态

高度 475.5 km
速度 7.63 km/s
星下点 22.43°N, 55.2°W
发射日期 Jun 24, 2024
运行时间 1.9 years
类型 internet

技术详情

分类 Payload
质量 730.00 kg
干质量 700.00 kg
总质量 730.00 kg
长度 0.30 m
直径 4.10 m
跨度 29.00 m
形状 Box + pan
制造商 SPXS
平台类型 Starlink V2M
阶段状态 In Orbit
所有者/国家 SPXS/US

Most Searched